www.pogodaiklimat.ru

ПОГОДА в Савунге, AK

  • Прогноз погоды в Савунге
  • Монитор погоды в Савунге
  • Климат в Савунге

АРХИВ ПОГОДЫ в Савунге

Время (UTC), дата Ветер
(напр.,м/с)
 
Видим.   Явления Облачность Т
(С)
Тd
(С)
f
(%)
Тe
(С)
Тes
(С)
Комфортность

P
(гПа)

Po
(гПа)
Тmin
(С)
Tmax
(С)
R
(мм)
SD
(см)
09:56 04.06 З  1 км  дымка  10/10 60 м  +1.1  +1.1  100  -6  -6    1022.5  1020.3         
10:18 04.06 З  400 м  туман  10/10 60 м  +1.0  +1.0  100  -7  -7      1020.3         
10:28 04.06 З  1 км  неопределенные осадки, дымка  10/10 60 м  +2.0  +1.0  93  -5  -5      1020.3         
10:31 04.06 З  2 км  неопределенные осадки, дымка  10/10 60 м  +1.0  +1.0  100  -6  -6      1020.3         
10:56 04.06 З  16 км    10/10 60 м  +1.1  +1.1  100  -6  -6    1022.6  1020.3  +1.1  +2.8     
12:56 04.06 З  16 км    10/10 120 м  +1.7  +1.1  96  -6  -6    1022.3  1020.0         
13:56 04.06 ЮЗ  16 км    10/10 120 м  +1.7  +1.1  96  -5  -5    1022.3  1020.0         
14:56 04.06 ЮЗ  16 км    10/10 180 м  +2.8  +2.2  96  -3  -3    1022.5  1020.3         
18:56 04.06 З  16 км    10/10 180 м  +3.9  +2.8  93  -2  -2    1022.4  1020.3         
19:56 04.06 З  16 км    10/10 240 м  +4.4  +2.8  89  -2  -2    1022.6  1020.3         
21:07 04.06 З  16 км    8/8 300 м  +4.0  +3.0  93  -3  -3      1020.3         
21:30 04.06 З  16 км    5/5 300 м  +4.0  +3.0  93  -3  -2      1020.3         
21:56 04.06 З  16 км    ясно  +5.0  +3.3  89  -1  +1    1022.5  1020.3         
22:56 04.06 З  16 км    ясно  +4.4  +3.3  93  -2  0    1022.5  1020.3  +3.3  +5.0     
01:56 05.06 З  16 км    ясно  +5.0  +3.3  89  -1  -1    1022.6  1020.3         
02:52 05.06 З  16 км    2/2 90 м  +4.0  +3.0  93  -3  -2      1020.3         
02:56 05.06 З  16 км    2/2 90 м  +4.4  +3.3  93  -3  -2    1022.5  1020.3         
03:45 05.06 З  14 км    8/8 30 м  +4.0  +3.0  93  -3  -3      1020.3         
03:56 05.06 З  6 км  дымка  8/8 30 м  +3.9  +3.3  96  -3  -3    1022.5  1020.3         
04:24 05.06 З  16 км    5/5 30 м  +4.0  +3.0  93  -3  -2      1020.3         
04:56 05.06 З  16 км    ясно  +3.3  +2.8  97  -4  -4    1022.8  1020.6  +3.3  +5.0     
05:10 05.06 З  16 км    2/2 60 м  +3.0  +3.0  100  -4  -4      1020.6         
05:23 05.06 З  10 км  дымка  8/8 60 м  +3.0  +3.0  100  -4  -4      1020.6         
06:36 05.06 З  16 км    2/2 60 м  +3.0  +2.0  93  -4  -4      1021.0         
06:56 05.06 З  16 км    ясно  +2.8  +2.2  96  -4  -4    1023.0  1020.6         
07:44 05.06 З  4 км  дымка  10/10 60 м  +2.0  +2.0  100  -5  -5      1021.0         
07:56 05.06 З  6 км  дымка  8/8 60 м  +2.2  +1.7  96  -5  -5    1023.2  1021.0         
08:10 05.06 З  13 км    5/5 60 м  +3.0  +2.0  93  -4  -4      1021.0         
08:22 05.06 З  1 км  слабый дождь, дымка  ?/?  +2.0  +2.0  100  -5  -5      1021.0         
08:31 05.06 З  800 м  слабый дождь, туман  8/8 30 м  +2.0  +2.0  100  -6  -6      1021.0         
09:14 05.06 З  1 км  слабый дождь, дымка  8/8 30 м  +2.0  +2.0  100  -4  -4      1021.0         
09:16 05.06 З  3 км  слабый дождь, дымка  8/8 30 м  +2.0  +2.0  100  -4  -4      1021.0         
09:22 05.06 З  14 км    5/5 30 м  +2.0  +2.0  100  -5  -5      1021.0         
09:52 05.06 З  800 м  неопределенные осадки, туман  ?/?  +2.0  +2.0  100  -5  -5      1021.3         
09:56 05.06 З  400 м  слабый дождь, туман  ?/?  +1.7  +1.7  100  -5  -5    1023.5  1021.3         
10:15 05.06 З  1 км  слабый дождь, дымка  10/10 30 м  +2.0  +2.0  100  -5  -5      1021.3         
10:17 05.06 З  2 км  слабый дождь, дымка  10/10 30 м  +2.0  +2.0  100  -5  -5      1021.3         
10:38 05.06 З  11 км    5/5 30 м  +2.0  +2.0  100  -5  -5      1021.0         
11:05 05.06 З  2 км  слабый дождь, дымка  8/8 30 м  +2.0  +2.0  100  -5  -5      1021.0         
11:07 05.06 З  6 км  слабый дождь, дымка  8/8 30 м  +2.0  +2.0  100  -5  -5      1021.0         
11:56 05.06 З  16 км    ясно  +2.2  +1.7  96  -5  -5    1023.3  1021.0         
12:41 05.06 З  8 км  дымка  2/2 30 м  +2.0  +2.0  100  -5  -5      1021.0         
14:51 05.06 З  16 км    8/8 120 м  +3.0  +2.0  93  -4  -4      1021.3         
14:56 05.06 З  14 км    8/8 120 м  +2.8  +2.2  96  -4  -4    1023.7  1021.6         
16:56 05.06 З  6 км  дымка  10/10 120 м  +3.9  +3.3  96  -3  -3    1023.9  1021.6  +1.7  +3.9     
17:16 05.06 З  10 км  дымка  10/10 60 м  +3.0  +3.0  100  -4  -4      1021.6         
16:56 26.06 ЮВ  7
{9} 
16 км  слабый дождь  10/10 1800 м  +11.1  +10.0  93  +7  +7    1006.2  1004.1  +8.9  +11.1  2.0   
17:56 26.06 ЮВ  16 км  слабый дождь  10/10 1110 м  +11.7  +10.0  89  +8  +8    1006.4  1004.1         

 

Местоположение метеостанции Savoonga Airport: широта 63.6833 долгота -170.5000 высота над уровнем моря 16 м.

В архиве по умолчанию представлена погода в Савунге за последние 1-2 суток. Обновление информации о фактической погоде в базе происходит ежечасно! Архивные данные за месяц целиком и за предыдущие месяцы Вы можете получить, выбрав интересующий диапазон дат из раскрывающегося списка и нажав кнопку "Ввод!".

Внимание! Архив погоды МЕТАР в базе сайта хранится не более 60 дней. Нет смысла пытаться выбрать более раннюю дату.

Внимание! Время в таблицах - всемирное. Для получения местного времени необходимо прибавить поправку, которая в Савунге равна -9 ч.

Ветер - указаны скорость ветра в м/с и направление, откуда дует ветер: С - северный, СВ - северо-восточный, В - восточный, ЮВ - юго-восточный, Ю - южный, ЮЗ - юго-западный, З - западный, СЗ - северо-западный.
Видимость - горизонтальная дальность видимости в метрах или километрах. При видимости от 1 до 10 км при отсутствии осадков обычно наблюдается дымка, при ухудшении видимости до 1 км и менее - туман. В сухую погоду видимость может ухудшаться дымом, пылью или мглою.
Атмосферные явления - указаны явления, наблюдавшиеся в указанный момент времени.
Облачность - указаны через наклонную черту верхняя и нижняя облачность в баллах и высота нижней границы облаков в метрах. Внимание: облачность, как и прочие метеорологические величины в США измеряются автоматическими метеостанциями. Указанные значения в баллах носят условный характер и показывают процент времени, в течение которого, в среднем, лазерный луч высотомера отражался от облаков обратно.
T - Температура воздуха - температура, измеренная на высоте 2 м над землей.
Td - Температура точки росы - температура, при понижении до которой содержащийся в воздухе водяной пар достигнет насыщения.
f - Относительная влажность воздуха - влажноcть воздуха, измеренная на высоте 2 м над землей.
Te - Эффективная температура - температура, которую ощущает одетый по сезону человек в тени. Характеристика душности погоды. При расчете учитывается влияние влажности воздуха и скорости ветра на теплоощущения человека.
Tes - Эффективная температура на солнце - температура, которую ощущает человек, с поправкой на солнечный нагрев. Характеристика знойности погоды. Зависит от высоты солнца над горизонтом, облачности и скорости ветра. Ночью, в пасмурную погоду, а также при ветре 12 м/с и более поправка равна нулю.
P - Атмосферное давление - приведенное к уровню моря атмосферное давление.
Po - Атмосферное давление - измеренное на уровне метеостанции атмосферное давление.
Tmin - Минимальная температура - минимум температуры воздуха на высоте 2 м над землей.
Tmax - Максимальная температура - максимум температуры воздуха на высоте 2 м над землей.
R - Количество осадков - Количество выпавших осадков за 3 или 6 часов, мм.
SD - Снежный покров - Высота снежного покрова, см.